Regional Weather Roundup
Issued by NWS Little Rock, AR

Home | Current Version | Previous Version | Text Only | Print | Product List | Glossary Off
Versions: 1 2 3 4 5 6 7 8 9 10 11 12 13 14 15 16 17 18 19 20 21 22 23 24 25 26 27 28 29 30 31 32 33 34 35 36 37 38 39 40 41 42 43 44 45 46 47 48 49 50

871
ASUS44 KLZK 062105
RWRLZK

WEATHER ROUNDUP FOR ARKANSAS
NATIONAL WEATHER SERVICE LITTLE ROCK AR
300 PM CST SAT FEB 06 2016

NOTE: "FAIR" INDICATES FEW OR NO CLOUDS BELOW 12,000 FEET WITH NO
SIGNIFICANT WEATHER AND/OR OBSTRUCTIONS TO VISIBILITY.

ARZ001-003-010-029-062200-
NORTHWEST ARKANSAS

CITY           SKY/WX    TMP DP  RH WIND       PRES   REMARKS
FAYETTEVILLE   SUNNY     53  26  35 VRB5      30.27F
FORT SMITH     SUNNY     57  18  21 W5        30.30F
HARRISON       SUNNY     51  22  31 CALM      30.26F
BENTONVILLE    SUNNY    N/A N/A N/A W10       30.27F
ROGERS         MOSUNNY   53  27  36 SW6G16    30.27S
SILOAM SPGS    PTSUNNY   55  27  33 W10       30.28S
HIGHFILL       MOSUNNY   54  28  36 SW12      30.26F
SPRINGDALE     SUNNY     54  25  32 W9        30.28F
$$

ARZ004-005-016-062200-
NORTH CENTRAL ARKANSAS

CITY           SKY/WX    TMP DP  RH WIND       PRES   REMARKS
BATESVILLE     SUNNY     55  14  19 S3        30.29F
FLIPPIN        SUNNY     54  18  24 S6        30.25F
MTN HOME       SUNNY     53  14  21 S7        30.26F
$$

ARZ040-041-062200-
WEST CENTRAL ARKANSAS

CITY           SKY/WX    TMP DP  RH WIND       PRES   REMARKS
MENA           SUNNY     55  21  26 NE3       30.28S
MOUNT IDA      SUNNY     56  18  22 VRB6      30.26F
$$

ARZ009-017-025-026-028-062200-
NORTHEAST ARKANSAS

CITY           SKY/WX    TMP DP  RH WIND       PRES   REMARKS
CORNING        FAIR      55  19  24 S6        30.30S
JONESBORO      SUNNY     52  23  32 S7        30.30F
NEWPORT        SUNNY     56  13  18 SE7       30.32F
WALNUT RIDGE   SUNNY     54  19  26 S3        30.30F
BLYTHEVILLE    SUNNY     57  21  24 SW6       30.31F
$$

ARZ022-023-033-042-044-062200-
CENTRAL ARKANSAS

CITY           SKY/WX    TMP DP  RH WIND       PRES   REMARKS
LITTLE ROCK    MOSUNNY   56  19  23 SE8       30.30F
N LITTLE ROCK  MOSUNNY   54  21  27 W5        30.30F
JACKSONVILLE   SUNNY     55  19  24 S2        30.29F
SEARCY         SUNNY     56  20  24 S3        30.32F
HOT SPRINGS    SUNNY     55  18  23 S8        30.29F
RUSSELLVILLE   SUNNY     55  17  22 W7        30.29S
CLINTON        FAIR      55  18  22 CALM      30.29F HAZE
$$

ARZ036-062200-
EAST ARKANSAS

CITY           SKY/WX    TMP DP  RH WIND       PRES   REMARKS
WEST MEMPHIS   MOSUNNY   53  27  36 NW6       30.31F
$$

ARZ050-053-066-070-073-062200-
SOUTHWEST ARKANSAS

CITY           SKY/WX    TMP DP  RH WIND       PRES   REMARKS
ARKADELPHIA    FAIR      57  21  24 VRB3      30.30F
CAMDEN         SUNNY     59  16  18 NE3       30.30S
TEXARKANA      SUNNY     55  22  27 CALM      30.31S
EL DORADO      SUNNY     57  23  26 NW6       30.29F
DE QUEEN       SUNNY     57  23  26 S6        30.28F
$$

ARZ056-057-069-062200-
SOUTHEAST ARKANSAS

CITY           SKY/WX    TMP DP  RH WIND       PRES   REMARKS
PINE BLUFF     SUNNY     55  21  26 CALM      30.30F
STUTTGART      SUNNY     54  21  28 N5        30.32S
MONTICELLO     SUNNY     58  19  22 SE6       30.28F

$$






USA.gov is the U.S. government's official web portal to all federal, state and local government web resources and services.